date,time,SUV Intensity [MED/Hr],UV Index,Daily total [MED],Since Last [MED]
29/03/2023,00:04:36,0.000,0.0,0.0,0.0
29/03/2023,00:05:37,0.000,0.0,0.0,0.0
29/03/2023,00:06:36,0.000,0.0,0.0,0.0
29/03/2023,00:07:37,0.001,0.0,0.0,0.0
29/03/2023,00:08:37,-0.002,0.0,0.0,0.0
29/03/2023,00:09:37,0.000,0.0,0.0,0.0
29/03/2023,00:10:36,-0.000,0.0,0.0,0.0
29/03/2023,00:11:37,-0.001,0.0,0.0,0.0
29/03/2023,00:12:36,0.001,0.0,0.0,0.0
29/03/2023,00:13:36,-0.000,0.0,0.0,0.0
29/03/2023,00:14:36,0.001,0.0,0.0,0.0
29/03/2023,00:15:36,0.000,0.0,0.0,0.0
29/03/2023,00:16:37,0.001,0.0,0.0,0.0
29/03/2023,00:17:36,-0.001,0.0,0.0,0.0
29/03/2023,00:18:36,0.000,0.0,0.0,0.0
29/03/2023,00:19:36,-0.000,0.0,0.0,0.0
29/03/2023,00:20:37,0.001,0.0,0.0,0.0
29/03/2023,00:21:36,0.001,0.0,0.0,0.0
29/03/2023,00:22:36,0.001,0.0,0.0,0.0
29/03/2023,00:23:36,0.000,0.0,0.0,0.0
29/03/2023,00:24:37,-0.001,0.0,0.0,0.0
29/03/2023,00:25:36,0.000,0.0,0.0,0.0
29/03/2023,00:26:36,-0.000,0.0,0.0,0.0
29/03/2023,00:27:37,-0.000,0.0,0.0,0.0
29/03/2023,00:28:36,-0.000,0.0,0.0,0.0
29/03/2023,00:29:37,0.000,0.0,0.0,0.0
29/03/2023,00:30:37,-0.001,0.0,0.0,0.0
29/03/2023,00:31:37,-0.000,0.0,0.0,0.0
29/03/2023,00:32:37,-0.000,0.0,0.0,0.0
29/03/2023,00:33:37,-0.000,0.0,0.0,0.0
29/03/2023,00:34:36,0.001,0.0,0.0,0.0
29/03/2023,00:35:37,-0.000,0.0,0.0,0.0
29/03/2023,00:36:37,-0.001,0.0,0.0,0.0
29/03/2023,00:37:36,-0.002,0.0,0.0,0.0
29/03/2023,00:38:37,0.000,0.0,0.0,0.0
29/03/2023,00:39:37,-0.000,0.0,0.0,0.0
29/03/2023,00:40:36,0.000,0.0,0.0,0.0
29/03/2023,00:41:37,-0.000,0.0,0.0,0.0
29/03/2023,00:42:36,0.001,0.0,0.0,0.0
29/03/2023,00:43:37,0.000,0.0,0.0,0.0
29/03/2023,00:44:37,0.000,0.0,0.0,0.0
29/03/2023,00:45:37,-0.000,0.0,0.0,0.0
29/03/2023,00:46:37,-0.001,0.0,0.0,0.0
29/03/2023,00:47:37,0.000,0.0,0.0,0.0
29/03/2023,00:48:37,-0.001,0.0,0.0,0.0
29/03/2023,00:49:37,0.001,0.0,0.0,0.0
29/03/2023,00:50:37,-0.000,0.0,0.0,0.0
29/03/2023,00:51:36,-0.000,0.0,0.0,0.0
29/03/2023,00:52:37,-0.000,0.0,0.0,0.0
29/03/2023,00:53:37,0.001,0.0,0.0,0.0
29/03/2023,00:54:37,-0.001,0.0,0.0,0.0
29/03/2023,00:55:37,-0.000,0.0,0.0,0.0
29/03/2023,00:56:36,-0.001,0.0,0.0,0.0
29/03/2023,00:57:37,-0.001,0.0,0.0,0.0
29/03/2023,00:58:37,-0.000,0.0,0.0,0.0
29/03/2023,00:59:37,0.000,0.0,0.0,0.0
29/03/2023,01:00:36,-0.000,0.0,0.0,0.0
29/03/2023,01:01:36,0.000,0.0,0.0,0.0
29/03/2023,01:02:36,0.000,0.0,0.0,0.0
29/03/2023,01:03:37,-0.000,0.0,0.0,0.0
29/03/2023,01:04:37,-0.001,0.0,0.0,0.0
29/03/2023,01:05:37,-0.000,0.0,0.0,0.0
29/03/2023,01:06:37,0.000,0.0,0.0,0.0
29/03/2023,01:07:36,-0.000,0.0,0.0,0.0
29/03/2023,01:08:37,0.000,0.0,0.0,0.0
29/03/2023,01:09:37,-0.001,0.0,0.0,0.0
29/03/2023,01:10:37,-0.000,0.0,0.0,0.0
29/03/2023,01:11:37,0.000,0.0,0.0,0.0
29/03/2023,01:12:37,0.000,0.0,0.0,0.0
29/03/2023,01:13:36,0.000,0.0,0.0,0.0
29/03/2023,01:14:37,0.001,0.0,0.0,0.0
29/03/2023,01:15:37,-0.000,0.0,0.0,0.0
29/03/2023,01:16:37,-0.001,0.0,0.0,0.0
29/03/2023,01:17:37,-0.000,0.0,0.0,0.0
29/03/2023,01:18:36,-0.000,0.0,0.0,0.0
29/03/2023,01:19:37,-0.001,0.0,0.0,0.0
29/03/2023,01:20:37,-0.001,0.0,0.0,0.0
29/03/2023,01:21:36,0.000,0.0,0.0,0.0
29/03/2023,01:22:36,-0.000,0.0,0.0,0.0
29/03/2023,01:23:37,0.000,0.0,0.0,0.0
29/03/2023,01:24:37,-0.001,0.0,0.0,0.0
29/03/2023,01:25:36,0.001,0.0,0.0,0.0
29/03/2023,01:26:37,0.000,0.0,0.0,0.0
29/03/2023,01:27:37,0.000,0.0,0.0,0.0
29/03/2023,01:28:37,0.001,0.0,0.0,0.0
29/03/2023,01:29:37,-0.001,0.0,0.0,0.0
29/03/2023,01:30:37,0.000,0.0,0.0,0.0
29/03/2023,01:31:37,-0.000,0.0,0.0,0.0
29/03/2023,01:32:36,0.000,0.0,0.0,0.0
29/03/2023,01:33:37,0.000,0.0,0.0,0.0
29/03/2023,01:34:37,0.001,0.0,0.0,0.0
29/03/2023,01:35:38,0.000,0.0,0.0,0.0
29/03/2023,01:36:37,0.001,0.0,0.0,0.0
29/03/2023,01:37:37,-0.001,0.0,0.0,0.0
29/03/2023,01:38:37,-0.000,0.0,0.0,0.0
29/03/2023,01:39:37,-0.000,0.0,0.0,0.0
29/03/2023,01:40:36,0.000,0.0,0.0,0.0
29/03/2023,01:41:37,0.000,0.0,0.0,0.0
29/03/2023,01:42:36,-0.000,0.0,0.0,0.0
29/03/2023,01:43:37,-0.001,0.0,0.0,0.0
29/03/2023,01:44:37,0.000,0.0,0.0,0.0
29/03/2023,01:45:37,0.000,0.0,0.0,0.0
29/03/2023,01:46:37,0.000,0.0,0.0,0.0
29/03/2023,01:47:37,0.000,0.0,0.0,0.0
29/03/2023,01:48:36,-0.000,0.0,0.0,0.0
29/03/2023,01:49:37,0.001,0.0,0.0,0.0
29/03/2023,01:50:36,0.000,0.0,0.0,0.0
29/03/2023,01:51:37,-0.000,0.0,0.0,0.0
29/03/2023,01:52:36,0.001,0.0,0.0,0.0
29/03/2023,01:53:37,0.000,0.0,0.0,0.0
29/03/2023,01:54:37,-0.000,0.0,0.0,0.0
29/03/2023,01:55:37,0.001,0.0,0.0,0.0
29/03/2023,01:56:37,-0.000,0.0,0.0,0.0
29/03/2023,01:57:37,-0.000,0.0,0.0,0.0
29/03/2023,01:58:37,-0.000,0.0,0.0,0.0
29/03/2023,01:59:37,0.000,0.0,0.0,0.0
29/03/2023,02:00:37,-0.001,0.0,0.0,0.0
29/03/2023,02:01:36,-0.000,0.0,0.0,0.0
29/03/2023,02:02:37,0.000,0.0,0.0,0.0
29/03/2023,02:03:37,-0.000,0.0,0.0,0.0
29/03/2023,02:04:36,-0.001,0.0,0.0,0.0
29/03/2023,02:05:36,-0.001,0.0,0.0,0.0
29/03/2023,02:06:36,-0.000,0.0,0.0,0.0
29/03/2023,02:07:37,0.000,0.0,0.0,0.0
29/03/2023,02:08:37,-0.000,0.0,0.0,0.0
29/03/2023,02:09:36,-0.001,0.0,0.0,0.0
29/03/2023,02:10:37,-0.001,0.0,0.0,0.0
29/03/2023,02:11:36,-0.000,0.0,0.0,0.0
29/03/2023,02:12:36,0.001,0.0,0.0,0.0
29/03/2023,02:13:37,0.001,0.0,0.0,0.0
29/03/2023,02:14:37,0.000,0.0,0.0,0.0
29/03/2023,02:15:37,-0.000,0.0,0.0,0.0
29/03/2023,02:16:37,-0.001,0.0,0.0,0.0
29/03/2023,02:17:37,-0.000,0.0,0.0,0.0
29/03/2023,02:18:37,-0.000,0.0,0.0,0.0
29/03/2023,02:19:36,0.000,0.0,0.0,0.0
29/03/2023,02:20:37,0.001,0.0,0.0,0.0
29/03/2023,02:21:37,-0.000,0.0,0.0,0.0
29/03/2023,02:22:37,-0.001,0.0,0.0,0.0
29/03/2023,02:23:37,0.000,0.0,0.0,0.0
29/03/2023,02:24:36,-0.000,0.0,0.0,0.0
29/03/2023,02:25:37,0.000,0.0,0.0,0.0
29/03/2023,02:26:37,-0.000,0.0,0.0,0.0
29/03/2023,02:27:37,-0.000,0.0,0.0,0.0
29/03/2023,02:28:37,0.001,0.0,0.0,0.0
29/03/2023,02:29:37,-0.000,0.0,0.0,0.0
29/03/2023,02:30:37,-0.000,0.0,0.0,0.0
29/03/2023,02:31:37,0.000,0.0,0.0,0.0
29/03/2023,02:32:37,-0.000,0.0,0.0,0.0
29/03/2023,02:33:36,0.000,0.0,0.0,0.0
29/03/2023,02:34:37,0.000,0.0,0.0,0.0
29/03/2023,02:35:37,-0.001,0.0,0.0,0.0
29/03/2023,02:36:37,0.001,0.0,0.0,0.0
29/03/2023,02:37:37,-0.000,0.0,0.0,0.0
29/03/2023,02:38:36,-0.001,0.0,0.0,0.0
29/03/2023,02:39:37,0.001,0.0,0.0,0.0
29/03/2023,02:40:37,-0.000,0.0,0.0,0.0
29/03/2023,02:41:37,-0.001,0.0,0.0,0.0
29/03/2023,02:42:37,-0.000,0.0,0.0,0.0
29/03/2023,02:43:37,-0.000,0.0,0.0,0.0
29/03/2023,02:44:36,0.000,0.0,0.0,0.0
29/03/2023,02:45:37,0.000,0.0,0.0,0.0
29/03/2023,02:46:37,-0.001,0.0,0.0,0.0
29/03/2023,02:47:37,-0.001,0.0,0.0,0.0
29/03/2023,02:48:37,-0.001,0.0,0.0,0.0
29/03/2023,02:49:37,-0.001,0.0,0.0,0.0
29/03/2023,02:50:37,-0.000,0.0,0.0,0.0
29/03/2023,02:51:37,-0.000,0.0,0.0,0.0
29/03/2023,02:52:37,-0.001,0.0,0.0,0.0
29/03/2023,02:53:37,-0.000,0.0,0.0,0.0
29/03/2023,02:54:37,0.000,0.0,0.0,0.0
29/03/2023,02:55:36,0.000,0.0,0.0,0.0
29/03/2023,02:56:36,0.001,0.0,0.0,0.0
29/03/2023,02:57:36,-0.000,0.0,0.0,0.0
29/03/2023,02:58:37,-0.001,0.0,0.0,0.0
29/03/2023,02:59:37,-0.000,0.0,0.0,0.0
29/03/2023,03:00:37,0.001,0.0,0.0,0.0
29/03/2023,03:01:36,-0.001,0.0,0.0,0.0
29/03/2023,03:02:36,-0.000,0.0,0.0,0.0
29/03/2023,03:03:37,0.000,0.0,0.0,0.0
29/03/2023,03:04:37,-0.001,0.0,0.0,0.0
29/03/2023,03:05:37,-0.000,0.0,0.0,0.0
29/03/2023,03:06:37,0.000,0.0,0.0,0.0
29/03/2023,03:07:37,-0.000,0.0,0.0,0.0
29/03/2023,03:08:37,0.000,0.0,0.0,0.0
29/03/2023,03:09:37,-0.000,0.0,0.0,0.0
29/03/2023,03:10:36,0.001,0.0,0.0,0.0
29/03/2023,03:11:37,0.000,0.0,0.0,0.0
29/03/2023,03:12:37,-0.000,0.0,0.0,0.0
29/03/2023,03:13:37,-0.001,0.0,0.0,0.0
29/03/2023,03:14:37,0.000,0.0,0.0,0.0
29/03/2023,03:15:37,-0.000,0.0,0.0,0.0
29/03/2023,03:16:37,0.000,0.0,0.0,0.0
29/03/2023,03:17:37,-0.001,0.0,0.0,0.0
29/03/2023,03:18:37,0.000,0.0,0.0,0.0
29/03/2023,03:19:37,-0.001,0.0,0.0,0.0
29/03/2023,03:20:36,-0.000,0.0,0.0,0.0
29/03/2023,03:21:37,-0.000,0.0,0.0,0.0
29/03/2023,03:22:37,0.000,0.0,0.0,0.0
29/03/2023,03:23:37,-0.000,0.0,0.0,0.0
29/03/2023,03:24:37,-0.001,0.0,0.0,0.0
29/03/2023,03:25:37,-0.001,0.0,0.0,0.0
29/03/2023,03:26:37,-0.001,0.0,0.0,0.0
29/03/2023,03:27:37,-0.000,0.0,0.0,0.0
29/03/2023,03:28:37,0.000,0.0,0.0,0.0
29/03/2023,03:29:37,-0.001,0.0,0.0,0.0
29/03/2023,03:30:36,-0.001,0.0,0.0,0.0
29/03/2023,03:31:37,-0.001,0.0,0.0,0.0
29/03/2023,03:32:37,-0.000,0.0,0.0,0.0
29/03/2023,03:33:37,0.001,0.0,0.0,0.0
29/03/2023,03:34:37,0.000,0.0,0.0,0.0
29/03/2023,03:35:37,-0.000,0.0,0.0,0.0
29/03/2023,03:36:37,-0.001,0.0,0.0,0.0
29/03/2023,03:37:37,-0.000,0.0,0.0,0.0
29/03/2023,03:38:37,-0.000,0.0,0.0,0.0
29/03/2023,03:39:37,-0.000,0.0,0.0,0.0
29/03/2023,03:40:37,0.001,0.0,0.0,0.0
29/03/2023,03:41:37,-0.001,0.0,0.0,0.0
29/03/2023,03:42:37,-0.000,0.0,0.0,0.0
29/03/2023,03:43:37,-0.001,0.0,0.0,0.0
29/03/2023,03:44:37,0.000,0.0,0.0,0.0
29/03/2023,03:45:37,-0.000,0.0,0.0,0.0
29/03/2023,03:46:37,-0.000,0.0,0.0,0.0
29/03/2023,03:47:36,-0.000,0.0,0.0,0.0
29/03/2023,03:48:37,-0.001,0.0,0.0,0.0
29/03/2023,03:49:37,-0.001,0.0,0.0,0.0
29/03/2023,03:50:37,-0.000,0.0,0.0,0.0
29/03/2023,03:51:37,-0.000,0.0,0.0,0.0
29/03/2023,03:52:37,0.001,0.0,0.0,0.0
29/03/2023,03:53:37,0.001,0.0,0.0,0.0
29/03/2023,03:54:37,-0.000,0.0,0.0,0.0
29/03/2023,03:55:37,-0.000,0.0,0.0,0.0
29/03/2023,03:56:37,-0.000,0.0,0.0,0.0
29/03/2023,03:57:37,0.000,0.0,0.0,0.0
29/03/2023,03:58:37,0.000,0.0,0.0,0.0
29/03/2023,03:59:37,-0.000,0.0,0.0,0.0
29/03/2023,04:00:37,-0.000,0.0,0.0,0.0
29/03/2023,04:01:37,-0.000,0.0,0.0,0.0
29/03/2023,04:02:37,0.000,0.0,0.0,0.0
29/03/2023,04:03:37,0.001,0.0,0.0,0.0
29/03/2023,04:04:41,-0.000,0.0,0.0,0.0
29/03/2023,04:05:38,-0.000,0.0,0.0,0.0
29/03/2023,04:06:37,0.001,0.0,0.0,0.0
29/03/2023,04:07:37,0.001,0.0,0.0,0.0
29/03/2023,04:08:37,0.000,0.0,0.0,0.0
29/03/2023,04:09:37,0.000,0.0,0.0,0.0
29/03/2023,04:10:37,-0.000,0.0,0.0,0.0
29/03/2023,04:11:37,-0.000,0.0,0.0,0.0
29/03/2023,04:12:37,-0.000,0.0,0.0,0.0
29/03/2023,04:13:37,-0.000,0.0,0.0,0.0
29/03/2023,04:14:37,-0.001,0.0,0.0,0.0
29/03/2023,04:15:37,-0.000,0.0,0.0,0.0
29/03/2023,04:16:37,-0.000,0.0,0.0,0.0
29/03/2023,04:17:37,-0.001,0.0,0.0,0.0
29/03/2023,04:18:37,-0.001,0.0,0.0,0.0
29/03/2023,04:19:37,-0.001,0.0,0.0,0.0
29/03/2023,04:20:37,-0.001,0.0,0.0,0.0
29/03/2023,04:21:37,-0.000,0.0,0.0,0.0
29/03/2023,04:22:37,-0.000,0.0,0.0,0.0
29/03/2023,04:23:37,-0.000,0.0,0.0,0.0
29/03/2023,04:24:37,-0.000,0.0,0.0,0.0
29/03/2023,04:25:37,0.000,0.0,0.0,0.0
29/03/2023,04:26:37,-0.000,0.0,0.0,0.0
29/03/2023,04:27:37,-0.001,0.0,0.0,0.0
29/03/2023,04:28:37,-0.000,0.0,0.0,0.0
29/03/2023,04:29:37,-0.001,0.0,0.0,0.0
29/03/2023,04:30:37,-0.001,0.0,0.0,0.0
29/03/2023,04:31:37,0.000,0.0,0.0,0.0
29/03/2023,04:32:36,0.000,0.0,0.0,0.0
29/03/2023,04:33:37,0.001,0.0,0.0,0.0
29/03/2023,04:34:37,0.001,0.0,0.0,0.0
29/03/2023,04:35:37,0.000,0.0,0.0,0.0
29/03/2023,04:36:37,-0.000,0.0,0.0,0.0
29/03/2023,04:37:37,-0.000,0.0,0.0,0.0
29/03/2023,04:38:37,0.000,0.0,0.0,0.0
29/03/2023,04:39:37,-0.000,0.0,0.0,0.0
29/03/2023,04:40:37,0.000,0.0,0.0,0.0
29/03/2023,04:41:37,0.000,0.0,0.0,0.0
29/03/2023,04:42:37,0.000,0.0,0.0,0.0
29/03/2023,04:43:37,-0.000,0.0,0.0,0.0
29/03/2023,04:44:37,-0.000,0.0,0.0,0.0
29/03/2023,04:45:37,-0.001,0.0,0.0,0.0
29/03/2023,04:46:37,0.001,0.0,0.0,0.0
29/03/2023,04:47:38,-0.000,0.0,0.0,0.0
29/03/2023,04:48:36,0.000,0.0,0.0,0.0
29/03/2023,04:49:37,0.000,0.0,0.0,0.0
29/03/2023,04:50:37,0.000,0.0,0.0,0.0
29/03/2023,04:51:37,0.001,0.0,0.0,0.0
29/03/2023,04:52:36,0.000,0.0,0.0,0.0
29/03/2023,04:53:37,-0.001,0.0,0.0,0.0
29/03/2023,04:54:37,0.000,0.0,0.0,0.0
29/03/2023,04:55:37,0.000,0.0,0.0,0.0
29/03/2023,04:56:37,0.000,0.0,0.0,0.0
29/03/2023,04:57:37,-0.001,0.0,0.0,0.0
29/03/2023,04:58:37,0.000,0.0,0.0,0.0
29/03/2023,04:59:37,0.000,0.0,0.0,0.0
29/03/2023,05:00:37,0.001,0.0,0.0,0.0
29/03/2023,05:01:37,0.000,0.0,0.0,0.0
29/03/2023,05:02:37,0.000,0.0,0.0,0.0
29/03/2023,05:03:37,-0.000,0.0,0.0,0.0
29/03/2023,05:04:37,0.000,0.0,0.0,0.0
29/03/2023,05:05:37,0.000,0.0,0.0,0.0
29/03/2023,05:06:37,-0.001,0.0,0.0,0.0
29/03/2023,05:07:37,-0.000,0.0,0.0,0.0
29/03/2023,05:08:37,0.001,0.0,0.0,0.0
29/03/2023,05:09:37,-0.001,0.0,0.0,0.0
29/03/2023,05:10:37,-0.001,0.0,0.0,0.0
29/03/2023,05:11:37,-0.000,0.0,0.0,0.0
29/03/2023,05:12:37,0.000,0.0,0.0,0.0
29/03/2023,05:13:37,-0.000,0.0,0.0,0.0
29/03/2023,05:14:37,-0.001,0.0,0.0,0.0
29/03/2023,05:15:37,-0.000,0.0,0.0,0.0
29/03/2023,05:16:37,-0.000,0.0,0.0,0.0
29/03/2023,05:17:37,-0.001,0.0,0.0,0.0
29/03/2023,05:18:37,-0.001,0.0,0.0,0.0
29/03/2023,05:19:37,0.000,0.0,0.0,0.0
29/03/2023,05:20:38,-0.000,0.0,0.0,0.0
29/03/2023,05:21:37,0.000,0.0,0.0,0.0
29/03/2023,05:22:37,0.000,0.0,0.0,0.0
29/03/2023,05:23:37,-0.001,0.0,0.0,0.0
29/03/2023,05:24:37,-0.000,0.0,0.0,0.0
29/03/2023,05:25:37,-0.000,0.0,0.0,0.0
29/03/2023,05:26:37,-0.000,0.0,0.0,0.0
29/03/2023,05:27:37,-0.000,0.0,0.0,0.0
29/03/2023,05:28:37,0.000,0.0,0.0,0.0
29/03/2023,05:29:37,0.000,0.0,0.0,0.0
29/03/2023,05:30:37,0.000,0.0,0.0,0.0
29/03/2023,05:31:37,-0.000,0.0,0.0,0.0
29/03/2023,05:32:37,0.000,0.0,0.0,0.0
29/03/2023,05:33:37,-0.001,0.0,0.0,0.0
29/03/2023,05:34:37,0.001,0.0,0.0,0.0
29/03/2023,05:35:37,0.000,0.0,0.0,0.0
29/03/2023,05:36:37,-0.001,0.0,0.0,0.0
29/03/2023,05:37:37,0.000,0.0,0.0,0.0
29/03/2023,05:38:37,0.000,0.0,0.0,0.0
29/03/2023,05:39:37,0.000,0.0,0.0,0.0
29/03/2023,05:40:37,0.000,0.0,0.0,0.0
29/03/2023,05:41:37,0.000,0.0,0.0,0.0
29/03/2023,05:42:37,0.000,0.0,0.0,0.0
29/03/2023,05:43:37,0.000,0.0,0.0,0.0
29/03/2023,05:44:37,-0.000,0.0,0.0,0.0
29/03/2023,05:45:37,0.000,0.0,0.0,0.0
29/03/2023,05:46:37,0.000,0.0,0.0,0.0
29/03/2023,05:47:41,0.000,0.0,0.0,0.0
29/03/2023,05:48:38,0.000,0.0,0.0,0.0
29/03/2023,05:49:37,0.001,0.0,0.0,0.0
29/03/2023,05:50:37,0.001,0.0,0.0,0.0
29/03/2023,05:51:37,0.001,0.0,0.0,0.0
29/03/2023,05:52:38,0.000,0.0,0.0,0.0
29/03/2023,05:53:37,0.001,0.0,0.0,0.0
29/03/2023,05:54:37,0.001,0.0,0.0,0.0
29/03/2023,05:55:37,0.001,0.0,0.0,0.0
29/03/2023,05:56:37,0.001,0.0,0.0,0.0
29/03/2023,05:57:37,0.001,0.0,0.0,0.0
29/03/2023,05:58:37,0.002,0.0,0.0,0.0
29/03/2023,05:59:37,0.003,0.0,0.0,0.0
29/03/2023,06:00:39,0.002,0.0,0.0,0.0
29/03/2023,06:01:38,0.001,0.0,0.0,0.0
29/03/2023,06:02:37,0.003,0.0,0.0,0.0
29/03/2023,06:03:37,0.003,0.0,0.0,0.0
29/03/2023,06:04:37,0.002,0.0,0.0,0.0
29/03/2023,06:05:37,0.003,0.0,0.0,0.0
29/03/2023,06:06:37,0.003,0.0,0.0,0.0
29/03/2023,06:07:37,0.002,0.0,0.0,0.0
29/03/2023,06:08:38,0.002,0.0,0.0,0.0
29/03/2023,06:09:37,0.003,0.0,0.0,0.0
29/03/2023,06:10:37,0.003,0.0,0.0,0.0
29/03/2023,06:11:38,0.004,0.0,0.0,0.0
29/03/2023,06:12:37,0.004,0.0,0.0,0.0
29/03/2023,06:13:37,0.003,0.0,0.0,0.0
29/03/2023,06:14:37,0.003,0.0,0.0,0.0
29/03/2023,06:15:37,0.003,0.0,0.0,0.0
29/03/2023,06:16:38,0.005,0.0,0.0,0.0
29/03/2023,06:17:37,0.005,0.0,0.0,0.0
29/03/2023,06:18:37,0.005,0.0,0.0,0.0
29/03/2023,06:19:37,0.006,0.0,0.0,0.0
29/03/2023,06:20:37,0.005,0.0,0.0,0.0
29/03/2023,06:21:38,0.005,0.0,0.0,0.0
29/03/2023,06:22:37,0.005,0.0,0.0,0.0
29/03/2023,06:23:37,0.005,0.0,0.0,0.0
29/03/2023,06:24:37,0.006,0.0,0.0,0.0
29/03/2023,06:25:38,0.006,0.0,0.0,0.0
29/03/2023,06:26:38,0.008,0.0,0.0,0.0
29/03/2023,06:27:37,0.008,0.0,0.0,0.0
29/03/2023,06:28:37,0.007,0.0,0.0,0.0
29/03/2023,06:29:37,0.008,0.0,0.001,0.001
29/03/2023,06:30:38,0.007,0.0,0.001,0.0
29/03/2023,06:31:37,0.009,0.0,0.001,0.0
29/03/2023,06:32:37,0.009,0.0,0.001,0.0
29/03/2023,06:33:37,0.008,0.0,0.001,0.0
29/03/2023,06:34:38,0.007,0.0,0.001,0.0
29/03/2023,06:35:38,0.008,0.0,0.001,0.0
29/03/2023,06:36:37,0.006,0.0,0.001,0.0
29/03/2023,06:37:37,0.007,0.0,0.001,0.0
29/03/2023,06:38:37,0.007,0.0,0.002,0.001
29/03/2023,06:39:37,0.006,0.0,0.002,0.0
29/03/2023,06:40:37,0.008,0.0,0.002,0.0
29/03/2023,06:41:37,0.010,0.0,0.002,0.0
29/03/2023,06:42:37,0.011,0.0,0.002,0.0
29/03/2023,06:43:37,0.012,0.0,0.002,0.0
29/03/2023,06:44:37,0.010,0.0,0.002,0.0
29/03/2023,06:45:37,0.010,0.0,0.003,0.001
29/03/2023,06:46:37,0.011,0.0,0.003,0.0
29/03/2023,06:47:37,0.012,0.0,0.003,0.0
29/03/2023,06:48:37,0.015,0.0,0.003,0.0
29/03/2023,06:49:37,0.017,0.0,0.004,0.001
29/03/2023,06:50:37,0.013,0.0,0.004,0.0
29/03/2023,06:51:38,0.014,0.0,0.004,0.0
29/03/2023,06:52:38,0.013,0.0,0.004,0.0
29/03/2023,06:53:38,0.013,0.0,0.004,0.0
29/03/2023,06:54:37,0.012,0.0,0.005,0.001
29/03/2023,06:55:37,0.014,0.0,0.005,0.0
29/03/2023,06:56:37,0.018,0.0,0.005,0.0
29/03/2023,06:57:37,0.018,0.0,0.005,0.0
29/03/2023,06:58:37,0.018,0.0,0.006,0.001
29/03/2023,06:59:37,0.018,0.0,0.006,0.0
29/03/2023,07:00:37,0.019,0.0,0.006,0.0
29/03/2023,07:01:37,0.021,0.0,0.007,0.001
29/03/2023,07:02:37,0.021,0.0,0.007,0.0
29/03/2023,07:03:37,0.023,0.0,0.007,0.0
29/03/2023,07:04:37,0.021,0.0,0.008,0.001
29/03/2023,07:05:37,0.018,0.0,0.008,0.0
29/03/2023,07:06:37,0.017,0.0,0.008,0.0
29/03/2023,07:07:37,0.018,0.0,0.009,0.001
29/03/2023,07:08:37,0.017,0.0,0.009,0.0
29/03/2023,07:09:37,0.020,0.0,0.009,0.0
29/03/2023,07:10:37,0.020,0.0,0.01,0.001
29/03/2023,07:11:36,0.027,0.0,0.01,0.0
29/03/2023,07:12:37,0.032,0.0,0.01,0.0
29/03/2023,07:13:38,0.034,0.0,0.011,0.001
29/03/2023,07:14:38,0.039,0.0,0.012,0.001
29/03/2023,07:15:37,0.046,0.0,0.012,0.0
29/03/2023,07:16:37,0.050,0.0,0.013,0.001
29/03/2023,07:17:38,0.057,0.0,0.014,0.001
29/03/2023,07:18:37,0.069,0.0,0.015,0.001
29/03/2023,07:19:37,0.073,0.0,0.016,0.001
29/03/2023,07:20:37,0.072,0.0,0.017,0.001
29/03/2023,07:21:37,0.068,0.0,0.019,0.002
29/03/2023,07:22:37,0.068,0.0,0.02,0.001
29/03/2023,07:23:38,0.064,0.0,0.021,0.001
29/03/2023,07:24:37,0.062,0.0,0.022,0.001
29/03/2023,07:25:37,0.051,0.0,0.023,0.001
29/03/2023,07:26:37,0.052,0.0,0.024,0.001
29/03/2023,07:27:38,0.059,0.0,0.025,0.001
29/03/2023,07:28:37,0.052,0.0,0.026,0.001
29/03/2023,07:29:38,0.048,0.0,0.026,0.0
29/03/2023,07:30:38,0.043,0.0,0.027,0.001
29/03/2023,07:31:37,0.048,0.0,0.028,0.001
29/03/2023,07:32:38,0.048,0.0,0.029,0.001
29/03/2023,07:33:38,0.047,0.0,0.03,0.001
29/03/2023,07:34:38,0.053,0.0,0.03,0.0
29/03/2023,07:35:37,0.058,0.0,0.031,0.001
29/03/2023,07:36:37,0.052,0.0,0.032,0.001
29/03/2023,07:37:37,0.053,0.0,0.033,0.001
29/03/2023,07:38:38,0.052,0.0,0.034,0.001
29/03/2023,07:39:37,0.058,0.0,0.035,0.001
29/03/2023,07:40:38,0.063,0.0,0.036,0.001
29/03/2023,07:41:37,0.071,0.0,0.037,0.001
29/03/2023,07:42:38,0.064,0.0,0.038,0.001
29/03/2023,07:43:37,0.066,0.0,0.039,0.001
29/03/2023,07:44:37,0.071,0.0,0.04,0.001
29/03/2023,07:45:37,0.082,0.0,0.042,0.002
29/03/2023,07:46:38,0.075,0.0,0.043,0.001
29/03/2023,07:47:37,0.065,0.0,0.044,0.001
29/03/2023,07:48:37,0.058,0.0,0.045,0.001
29/03/2023,07:49:37,0.053,0.0,0.046,0.001
29/03/2023,07:50:37,0.055,0.0,0.047,0.001
29/03/2023,07:51:37,0.065,0.0,0.048,0.001
29/03/2023,07:52:38,0.065,0.0,0.049,0.001
29/03/2023,07:53:38,0.067,0.0,0.05,0.001
29/03/2023,07:54:37,0.068,0.0,0.051,0.001
29/03/2023,07:55:37,0.064,0.0,0.052,0.001
29/03/2023,07:56:37,0.065,0.0,0.054,0.002
29/03/2023,07:57:37,0.072,0.0,0.055,0.001
29/03/2023,07:58:37,0.072,0.0,0.056,0.001
29/03/2023,07:59:38,0.062,0.0,0.057,0.001
29/03/2023,08:00:38,0.071,0.0,0.058,0.001
29/03/2023,08:01:37,0.071,0.0,0.059,0.001
29/03/2023,08:02:37,0.067,0.0,0.06,0.001
29/03/2023,08:03:38,0.068,0.0,0.062,0.002
29/03/2023,08:04:37,0.076,0.0,0.063,0.001
29/03/2023,08:05:37,0.077,0.0,0.064,0.001
29/03/2023,08:06:37,0.083,0.0,0.065,0.001
29/03/2023,08:07:37,0.070,0.0,0.067,0.002
29/03/2023,08:08:37,0.073,0.0,0.068,0.001
29/03/2023,08:09:37,0.067,0.0,0.069,0.001
29/03/2023,08:10:37,0.073,0.0,0.07,0.001
29/03/2023,08:11:38,0.079,0.0,0.071,0.001
29/03/2023,08:12:37,0.074,0.0,0.073,0.002
29/03/2023,08:13:37,0.071,0.0,0.074,0.001
29/03/2023,08:14:37,0.067,0.0,0.075,0.001
29/03/2023,08:15:38,0.065,0.0,0.076,0.001
29/03/2023,08:16:37,0.075,0.0,0.077,0.001
29/03/2023,08:17:37,0.069,0.0,0.079,0.002
29/03/2023,08:18:37,0.071,0.0,0.08,0.001
29/03/2023,08:19:37,0.086,0.0,0.081,0.001
29/03/2023,08:20:37,0.088,0.0,0.082,0.001
29/03/2023,08:21:37,0.094,0.0,0.084,0.002
29/03/2023,08:22:38,0.105,0.0,0.086,0.002
29/03/2023,08:23:37,0.114,0.0,0.087,0.001
29/03/2023,08:24:37,0.106,0.0,0.089,0.002
29/03/2023,08:25:37,0.111,0.0,0.091,0.002
29/03/2023,08:26:37,0.092,0.0,0.093,0.002
29/03/2023,08:27:38,0.093,0.0,0.094,0.001
29/03/2023,08:28:38,0.093,0.0,0.096,0.002
29/03/2023,08:29:38,0.094,0.0,0.097,0.001
29/03/2023,08:30:37,0.110,0.0,0.099,0.002
29/03/2023,08:31:37,0.134,0.0,0.101,0.002
29/03/2023,08:32:37,0.156,0.0,0.104,0.003
29/03/2023,08:33:37,0.134,0.0,0.106,0.002
29/03/2023,08:34:37,0.119,0.0,0.108,0.002
29/03/2023,08:35:38,0.121,0.0,0.11,0.002
29/03/2023,08:36:38,0.119,0.0,0.112,0.002
29/03/2023,08:37:37,0.115,0.0,0.114,0.002
29/03/2023,08:38:37,0.139,0.0,0.116,0.002
29/03/2023,08:39:37,0.132,0.0,0.118,0.002
29/03/2023,08:40:37,0.124,0.0,0.121,0.003
29/03/2023,08:41:37,0.127,0.0,0.123,0.002
29/03/2023,08:42:38,0.106,0.0,0.125,0.002
29/03/2023,08:43:37,0.096,0.0,0.126,0.001
29/03/2023,08:44:37,0.111,0.0,0.128,0.002
29/03/2023,08:45:37,0.109,0.0,0.13,0.002
29/03/2023,08:46:38,0.121,0.0,0.132,0.002
29/03/2023,08:47:37,0.122,0.0,0.134,0.002
29/03/2023,08:48:38,0.122,0.0,0.136,0.002
29/03/2023,08:49:38,0.126,0.0,0.138,0.002
29/03/2023,08:50:38,0.118,0.0,0.14,0.002
29/03/2023,08:51:37,0.119,0.0,0.142,0.002
29/03/2023,08:52:38,0.120,0.0,0.144,0.002
29/03/2023,08:53:38,0.127,0.0,0.146,0.002
29/03/2023,08:54:38,0.139,0.0,0.148,0.002
29/03/2023,08:55:37,0.194,0.0,0.151,0.003
29/03/2023,08:56:37,0.211,0.0,0.155,0.004
29/03/2023,08:57:38,0.183,0.0,0.158,0.003
29/03/2023,08:58:38,0.188,0.0,0.161,0.003
29/03/2023,08:59:38,0.169,0.0,0.164,0.003
29/03/2023,09:00:37,0.180,0.0,0.167,0.003
29/03/2023,09:01:37,0.167,0.0,0.17,0.003
29/03/2023,09:02:37,0.142,0.0,0.172,0.002
29/03/2023,09:03:37,0.129,0.0,0.174,0.002
29/03/2023,09:04:38,0.143,0.0,0.177,0.003
29/03/2023,09:05:37,0.145,0.0,0.179,0.002
29/03/2023,09:06:37,0.197,0.0,0.182,0.003
29/03/2023,09:07:37,0.250,1.0,0.186,0.004
29/03/2023,09:08:37,0.272,1.0,0.19,0.004
29/03/2023,09:09:37,0.267,1.0,0.195,0.005
29/03/2023,09:10:37,0.237,1.0,0.199,0.004
29/03/2023,09:11:38,0.232,1.0,0.203,0.004
29/03/2023,09:12:37,0.193,0.0,0.206,0.003
29/03/2023,09:13:37,0.180,0.0,0.21,0.004
29/03/2023,09:14:38,0.169,0.0,0.212,0.002
29/03/2023,09:15:38,0.139,0.0,0.215,0.003
29/03/2023,09:16:38,0.122,0.0,0.217,0.002
29/03/2023,09:17:38,0.153,0.0,0.219,0.002
29/03/2023,09:18:38,0.175,0.0,0.222,0.003
29/03/2023,09:19:37,0.194,0.0,0.225,0.003
29/03/2023,09:20:37,0.199,0.0,0.228,0.003
29/03/2023,09:21:38,0.178,0.0,0.232,0.004
29/03/2023,09:22:37,0.182,0.0,0.235,0.003
29/03/2023,09:23:38,0.162,0.0,0.238,0.003
29/03/2023,09:24:39,0.135,0.0,0.24,0.002
29/03/2023,09:25:38,0.148,0.0,0.243,0.003
29/03/2023,09:26:37,0.145,0.0,0.245,0.002
29/03/2023,09:27:38,0.170,0.0,0.248,0.003
29/03/2023,09:28:37,0.139,0.0,0.25,0.002
29/03/2023,09:29:37,0.117,0.0,0.252,0.002
29/03/2023,09:30:38,0.124,0.0,0.254,0.002
29/03/2023,09:31:38,0.116,0.0,0.256,0.002
29/03/2023,09:32:37,0.117,0.0,0.258,0.002
29/03/2023,09:33:38,0.135,0.0,0.26,0.002
29/03/2023,09:34:37,0.115,0.0,0.262,0.002
29/03/2023,09:35:38,0.098,0.0,0.264,0.002
29/03/2023,09:36:38,0.100,0.0,0.266,0.002
29/03/2023,09:37:37,0.085,0.0,0.267,0.001
29/03/2023,09:38:38,0.073,0.0,0.269,0.002
29/03/2023,09:39:38,0.078,0.0,0.27,0.001
29/03/2023,09:40:38,0.088,0.0,0.271,0.001
29/03/2023,09:41:37,0.094,0.0,0.273,0.002
29/03/2023,09:42:38,0.101,0.0,0.275,0.002
29/03/2023,09:43:38,0.101,0.0,0.276,0.001
29/03/2023,09:44:38,0.111,0.0,0.278,0.002
29/03/2023,09:45:37,0.125,0.0,0.28,0.002
29/03/2023,09:46:37,0.148,0.0,0.282,0.002
29/03/2023,09:47:38,0.137,0.0,0.284,0.002
29/03/2023,09:48:37,0.153,0.0,0.287,0.003
29/03/2023,09:49:38,0.117,0.0,0.289,0.002
29/03/2023,09:50:38,0.114,0.0,0.291,0.002
29/03/2023,09:51:38,0.119,0.0,0.293,0.002
29/03/2023,09:52:37,0.113,0.0,0.295,0.002
29/03/2023,09:53:38,0.126,0.0,0.297,0.002
29/03/2023,09:54:37,0.125,0.0,0.299,0.002
29/03/2023,09:55:38,0.130,0.0,0.301,0.002
29/03/2023,09:56:38,0.135,0.0,0.303,0.002
29/03/2023,09:57:38,0.162,0.0,0.306,0.003
29/03/2023,09:58:37,0.161,0.0,0.308,0.002
29/03/2023,09:59:38,0.170,0.0,0.311,0.003
29/03/2023,10:00:38,0.159,0.0,0.314,0.003
29/03/2023,10:01:38,0.186,0.0,0.317,0.003
29/03/2023,10:02:38,0.192,0.0,0.32,0.003
29/03/2023,10:03:38,0.257,1.0,0.324,0.004
29/03/2023,10:04:38,0.238,1.0,0.328,0.004
29/03/2023,10:05:37,0.223,1.0,0.332,0.004
29/03/2023,10:06:38,0.191,0.0,0.335,0.003